{"data":{"norad_id":45144,"intl_designator":"2020-008P","name":"ONEWEB-0036","alt_names":[],"object_type":"PAYLOAD","status":"ACTIVE","operator":null,"country":"UK","launch_date":"2020-02-06","launch_site_code":"TYMSC","launch_vehicle":null,"mission":null,"orbit_class":"UNKNOWN","rcs_meters":null,"size_class":null,"mass_kg":null,"dimensions":null,"purposes":["comms"],"wikipedia_slug":null,"has_3d_model":false,"image_url":null,"decayed_at":null,"tle_current":{"epoch":"2026-09-20T02:46:27.588576Z","epoch_age_seconds":47678,"freshness":"FRESH","line1":"1 45144U 20008P   26263.11559709 -.00000635  00000+0 -18565-2 0  9996","line2":"2 45144  87.8922  17.3988 0001897 104.8974 255.2364 13.10371194320798","mean_motion":13.10371194,"eccentricity":0.0001897,"inclination_deg":87.8922,"raan_deg":17.3988,"arg_perigee_deg":104.8974,"mean_anomaly_deg":255.2364,"bstar":-0.0018565,"rev_number":32079,"period_min":109.89252561362,"perigee_km":1220.2817326066,"apogee_km":1223.1651196522,"semimajor_km":7599.8604261294,"source":"CELESTRAK","updated_at":"2026-09-20T09:00:44.547382Z"}}}